Location: Bruderhein
(53.8035°N, 112.9265°W)
Time: 13:48:28
(UTC+00:00)

deb Delta 139 - Pass Details

Date: 09 December 2023
Orbit: 731 x 794 km, 98.6° (Epoch: 01 March)

Event Time Altitude Azimuth Distance (km) Brightness Sun altitude
Rises 14:49:35 0° 15° (NNE) 3,191 ? -6.6°
Reaches altitude 10° 14:51:53 10° 16° (NNE) 2,257 ? -6.3°
Maximum altitude 14:56:51 87° 107° (ESE) 742 ? -5.7°
Drops below altitude 10° 15:01:45 10° 196° (SSW) 2,229 ? -5.0°
Sets 15:04:00 0° 197° (SSW) 3,147 ? -4.8°
